Location: Alafon
(8.4500°N, 4.2333°E)
Time: 20:33:28
(UTC+00:00)

Vanguard 2 - Pass Details

Date: 06 August 2021
Orbit: 553 x 2937 km, 32.9° (Epoch: 27 September)

Event Time Altitude Azimuth Distance (km) Brightness Sun altitude
Rises 07:55:43 0° 321° (NW) 3,296 10.6 32.7°
Reaches altitude 10° 07:58:02 10° 332° (NNW) 2,581 10.2 33.2°
Maximum altitude 08:03:41 34° 36° (NE) 1,884 10.7 34.6°
Drops below altitude 10° 08:12:28 10° 97° (E) 4,063 12.3 36.7°
Sets 08:17:06 0° 105° (ESE) 5,491 12.6 37.8°
